When you browse on this site, cookies collect data to enhance your experience and personalize the content and advertising you see.
Visit our Privacy Policy to learn more. By continuing to use the site, you agree to this use of cookies and data.
  • In Portugal
  • List of Countries
  • For 7 days
  • Water Temperature
  • Satellite Maps
  • Weather Map
  • Weather Widgets
  • user-avatar
    Login

    Hourly Weather Yerevan

    Today, 16 July, Tuesday

    Time Temperature Precipitation Wind Pressure Humidity
    00:00 +25°C° 0 mm 2 mps 685 mmHg 34%
    01:00 +24°C° 0 mm 2 mps 685 mmHg 36%
    02:00 +24°C° 0 mm 2 mps 685 mmHg 37%
    03:00 +22°C° 0 mm 3 mps 685 mmHg 41%
    04:00 +22°C° 0 mm 3 mps 685 mmHg 43%
    05:00 +24°C° 0 mm 3 mps 685 mmHg 45%
    06:00 +24°C° 0 mm 3 mps 685 mmHg 48%
    07:00 +26°C° 0 mm 3 mps 685 mmHg 41%
    08:00 +28°C° 0 mm 3 mps 686 mmHg 35%
    09:00 +31°C° 0 mm 2 mps 686 mmHg 28%
    10:00 +32°C° 0 mm 2 mps 686 mmHg 25%
    11:00 +34°C° 0 mm 2 mps 686 mmHg 22%
    12:00 +36°C° 0 mm 2 mps 686 mmHg 18%
    13:00 +36°C° 0 mm 2 mps 686 mmHg 18%
    14:00 +37°C° 0 mm 2 mps 685 mmHg 17%
    15:00 +37°C° 0 mm 2 mps 685 mmHg 16%
    16:00 +37°C° 0 mm 2 mps 685 mmHg 16%
    17:00 +37°C° 0 mm 2 mps 685 mmHg 16%
    18:00 +37°C° 0 mm 2 mps 686 mmHg 17%
    19:00 +34°C° 0 mm 3 mps 685 mmHg 24%
    20:00 +30°C° 0 mm 3 mps 685 mmHg 32%
    21:00 +27°C° 0 mm 4 mps 685 mmHg 40%
    22:00 +26°C° 0 mm 4 mps 685 mmHg 43%
    23:00 +26°C° 0 mm 3 mps 685 mmHg 46%

    Tomorrow, 17 July, Wednesday

    Time Temperature Precipitation Wind Pressure Humidity
    00:00 +25°C° 0 mm 3 mps 686 mmHg 49%
    01:00 +24°C° 0 mm 3 mps 685 mmHg 51%
    02:00 +22°C° 0 mm 3 mps 685 mmHg 53%
    03:00 +23°C° 0 mm 2 mps 685 mmHg 55%
    04:00 +23°C° 0 mm 2 mps 685 mmHg 54%
    05:00 +24°C° 0 mm 2 mps 685 mmHg 52%
    06:00 +24°C° 0 mm 2 mps 685 mmHg 51%
    07:00 +26°C° 0 mm 2 mps 685 mmHg 46%
    08:00 +28°C° 0 mm 2 mps 685 mmHg 41%
    09:00 +30°C° 0 mm 1 mps 685 mmHg 36%
    10:00 +32°C° 0 mm 2 mps 685 mmHg 32%
    11:00 +34°C° 0 mm 2 mps 685 mmHg 28%
    12:00 +36°C° 0 mm 2 mps 685 mmHg 24%
    13:00 +37°C° 0 mm 2 mps 685 mmHg 22%
    14:00 +38°C° 0 mm 3 mps 685 mmHg 20%
    15:00 +39°C° 0 mm 3 mps 685 mmHg 18%
    16:00 +39°C° 0 mm 3 mps 685 mmHg 18%
    17:00 +38°C° 0 mm 3 mps 685 mmHg 19%
    18:00 +38°C° 0 mm 2 mps 685 mmHg 19%
    19:00 +35°C° 0 mm 3 mps 685 mmHg 25%
    20:00 +33°C° 0 mm 4 mps 685 mmHg 31%
    21:00 +29°C° 0 mm 4 mps 685 mmHg 37%
    22:00 +28°C° 0 mm 3 mps 685 mmHg 40%
    23:00 +27°C° 0 mm 3 mps 685 mmHg 44%

    Day after tomorrow, 18 July, Thursday

    Time Temperature Precipitation Wind Pressure Humidity
    00:00 +26°C° 0 mm 2 mps 685 mmHg 47%
    01:00 +25°C° 0 mm 2 mps 685 mmHg 49%
    02:00 +24°C° 0 mm 2 mps 685 mmHg 52%
    03:00 +24°C° 0 mm 2 mps 685 mmHg 55%
    04:00 +24°C° 0 mm 2 mps 685 mmHg 54%
    05:00 +25°C° 0 mm 2 mps 685 mmHg 53%
    06:00 +26°C° 0 mm 2 mps 685 mmHg 53%
    07:00 +28°C° 0 mm 1 mps 686 mmHg 46%
    08:00 +30°C° 0 mm 1 mps 686 mmHg 40%
    09:00 +32°C° 0 mm 1 mps 686 mmHg 34%
    10:00 +35°C° 0 mm 2 mps 686 mmHg 29%
    11:00 +36°C° 0 mm 2 mps 686 mmHg 25%
    12:00 +38°C° 0 mm 3 mps 686 mmHg 20%
    13:00 +39°C° 0 mm 3 mps 686 mmHg 18%
    14:00 +40°C° 0 mm 3 mps 686 mmHg 16%
    15:00 +42°C° 0 mm 3 mps 685 mmHg 14%
    16:00 +42°C° 0 mm 3 mps 686 mmHg 13%
    17:00 +41°C° 0 mm 2 mps 686 mmHg 13%
    18:00 +40°C° 0 mm 2 mps 686 mmHg 12%
    19:00 +37°C° 0 mm 2 mps 686 mmHg 20%
    20:00 +33°C° 0 mm 3 mps 686 mmHg 27%
    21:00 +29°C° 0 mm 3 mps 686 mmHg 35%
    22:00 +28°C° 0 mm 3 mps 686 mmHg 34%
    23:00 +27°C° 0 mm 3 mps 686 mmHg 34%

    19 July, Friday

    Time Temperature Precipitation Wind Pressure Humidity
    00:00 +26°C° 0 mm 2 mps 687 mmHg 34%
    01:00 +25°C° 0 mm 2 mps 687 mmHg 35%
    02:00 +25°C° 0 mm 2 mps 687 mmHg 37%
    03:00 +24°C° 0 mm 2 mps 687 mmHg 39%
    04:00 +24°C° 0 mm 2 mps 687 mmHg 41%
    05:00 +25°C° 0 mm 2 mps 687 mmHg 44%
    06:00 +25°C° 0 mm 2 mps 687 mmHg 47%
    07:00 +27°C° 0 mm 2 mps 687 mmHg 43%
    08:00 +30°C° 0 mm 2 mps 688 mmHg 38%
    09:00 +33°C° 0 mm 3 mps 688 mmHg 33%
    10:00 +34°C° 0 mm 2 mps 688 mmHg 28%
    11:00 +36°C° 0 mm 2 mps 688 mmHg 23%
    12:00 +38°C° 0 mm 2 mps 688 mmHg 18%
    13:00 +38°C° 0 mm 2 mps 688 mmHg 16%
    14:00 +39°C° 0 mm 1 mps 688 mmHg 15%
    15:00 +40°C° 0 mm 1 mps 688 mmHg 13%
    16:00 +40°C° 0 mm 2 mps 688 mmHg 15%
    17:00 +39°C° 0 mm 2 mps 688 mmHg 17%
    18:00 +38°C° 0 mm 2 mps 688 mmHg 19%
    19:00 +36°C° 0 mm 3 mps 688 mmHg 28%
    20:00 +33°C° 0 mm 4 mps 688 mmHg 37%
    21:00 +29°C° 0 mm 4 mps 688 mmHg 46%
    22:00 +28°C° 0 mm 4 mps 689 mmHg 50%
    23:00 +27°C° 0 mm 3 mps 689 mmHg 53%

    20 July, Saturday

    Time Temperature Precipitation Wind Pressure Humidity
    00:00 +26°C° 0 mm 3 mps 689 mmHg 56%
    01:00 +25°C° 0 mm 3 mps 689 mmHg 58%
    02:00 +25°C° 0 mm 2 mps 689 mmHg 59%
    03:00 +24°C° 0 mm 2 mps 689 mmHg 61%
    04:00 +25°C° 0 mm 2 mps 690 mmHg 59%
    05:00 +25°C° 0 mm 2 mps 690 mmHg 58%
    06:00 +26°C° 0 mm 1 mps 690 mmHg 56%
    07:00 +28°C° 0 mm 1 mps 690 mmHg 51%
    08:00 +30°C° 0 mm 1 mps 691 mmHg 45%
    09:00 +31°C° 0 mm 1 mps 691 mmHg 40%
    10:00 +34°C° 0 mm 2 mps 691 mmHg 35%
    11:00 +36°C° 0 mm 3 mps 691 mmHg 30%
    12:00 +38°C° 0 mm 3 mps 691 mmHg 26%
    13:00 +40°C° 0 mm 4 mps 691 mmHg 23%
    14:00 +41°C° 0 mm 5 mps 691 mmHg 20%
    15:00 +42°C° 0 mm 6 mps 691 mmHg 18%
    16:00 +41°C° 0 mm 6 mps 691 mmHg 20%
    17:00 +41°C° 0 mm 6 mps 691 mmHg 23%
    18:00 +40°C° 0 mm 6 mps 691 mmHg 25%
    19:00 +36°C° 0 mm 5 mps 691 mmHg 33%
    20:00 +34°C° 0 mm 5 mps 691 mmHg 40%
    21:00 +30°C° 0 mm 4 mps 691 mmHg 48%
    22:00 +29°C° 0 mm 4 mps 691 mmHg 50%
    23:00 +28°C° 0 mm 3 mps 691 mmHg 53%

    21 July, Sunday

    Time Temperature Precipitation Wind Pressure Humidity
    00:00 +27°C° 0 mm 2 mps 691 mmHg 56%
    01:00 +26°C° 0 mm 2 mps 691 mmHg 58%
    02:00 +25°C° 0 mm 2 mps 691 mmHg 60%
    03:00 +25°C° 0 mm 2 mps 691 mmHg 61%
    04:00 +25°C° 0 mm 2 mps 691 mmHg 59%
    05:00 +26°C° 0 mm 1 mps 691 mmHg 57%
    06:00 +26°C° 0 mm 1 mps 691 mmHg 54%
    07:00 +28°C° 0 mm 1 mps 691 mmHg 48%
    08:00 +31°C° 0 mm 1 mps 691 mmHg 41%
    09:00 +33°C° 0 mm 1 mps 691 mmHg 34%
    10:00 +36°C° 0 mm 2 mps 691 mmHg 30%
    11:00 +38°C° 0 mm 2 mps 691 mmHg 25%
    12:00 +40°C° 0 mm 3 mps 691 mmHg 21%
    13:00 +42°C° 0 mm 3 mps 691 mmHg 19%
    14:00 +43°C° 0 mm 3 mps 691 mmHg 17%
    15:00 +44°C° 0 mm 3 mps 691 mmHg 15%
    16:00 +43°C° 0 mm 3 mps 690 mmHg 17%
    17:00 +43°C° 0 mm 4 mps 690 mmHg 19%
    18:00 +42°C° 0 mm 4 mps 690 mmHg 21%
    19:00 +38°C° 0 mm 4 mps 690 mmHg 28%
    20:00 +35°C° 0 mm 3 mps 690 mmHg 35%
    21:00 +31°C° 0 mm 3 mps 690 mmHg 42%
    22:00 +30°C° 0 mm 3 mps 690 mmHg 45%
    23:00 +29°C° 0 mm 3 mps 690 mmHg 47%
    Show more